Ellensburg, WA
on Tuesday, November 20, 2012

Tuesday
Previous Day Next Day
Daily Summary
 ActualAverage (KYKM)Record (KYKM)
Temperature
Mean Temperature °F 36°F  
Max Temperature 55°F 46°F 63°F (2002)
Min Temperature 36°F 26°F 1°F (1985)
Degree Days
Heating Degree Days 20 29  
Month to date heating degree days 515  
Since 1 July heating degree days 1219  
Cooling Degree Days 0 0  
Month to date cooling degree days 0  
Year to date cooling degree days 472  
Moisture
Dew Point 37°F   
Average Humidity 75    
Maximum Humidity 86    
Minimum Humidity 57    
Precipitation
Precipitation 0.00 in 0.04 in 0.41 in (1966)
Month to date precipitation 0.65  
Year to date precipitation 6.32  
Snow
Snow 0.00 in 0.20 in 5.20 in (1946)
Month to date snowfall 1.5  
Year to date snowfall 10.2  
Since 1 July snowfall 1.6  
Snow Depth in   
Wind
Wind Speed 6 mph   
Max Wind Speed 13 mph   
Max Gust Speed 20 mph   
Visibility 10 miles   
Events     

Key: T is trace of precipitation, MM is missing value
Source: NWS Daily Summary
Time(PST)TemperatureDew PointHumidity Pressure Visibility Wind DirectionWind SpeedGust SpeedPrecipitationEvents Conditions
12:53 AM 41.0°F 36.0°F 82% 29.71 in 10.0 miles East 9.2 mph - N/A   Clear
1:53 AM 41.0°F 36.0°F 82% 29.73 in 10.0 miles East 3.5 mph - N/A   Mostly Cloudy
2:53 AM 43.0°F 37.9°F 82% 29.73 in 10.0 miles ENE 5.8 mph - N/A   Mostly Cloudy
3:53 AM 41.0°F 37.0°F 86% 29.74 in 10.0 miles Calm Calm - N/A   Mostly Cloudy
4:53 AM 44.1°F 37.9°F 79% 29.72 in 10.0 miles ENE 6.9 mph - N/A   Scattered Clouds
5:50 AM 42.8°F 37.4°F 81% 29.71 in 10.0 miles Calm Calm - N/A   Overcast
5:53 AM 44.1°F 37.0°F 76% 29.72 in 10.0 miles SSE 3.5 mph - N/A   Overcast
6:37 AM 42.8°F 37.4°F 81% 29.69 in 10.0 miles ENE 5.8 mph - N/A   Overcast
6:53 AM 44.1°F 37.9°F 79% 29.69 in 10.0 miles ENE 6.9 mph - N/A   Mostly Cloudy
7:53 AM 45.0°F 37.9°F 76% 29.69 in 10.0 miles East 4.6 mph - N/A   Scattered Clouds
8:38 AM 46.4°F 39.2°F 76% 29.66 in 10.0 miles East 6.9 mph - N/A   Overcast
8:53 AM 46.9°F 39.0°F 74% 29.66 in 10.0 miles East 5.8 mph - N/A   Overcast
9:08 AM 48.2°F 39.2°F 71% 29.64 in 10.0 miles East 4.6 mph - N/A   Overcast
9:51 AM 48.2°F 39.2°F 71% 29.64 in 10.0 miles ESE 8.1 mph - N/A   Mostly Cloudy
9:53 AM 48.9°F 39.9°F 71% 29.65 in 10.0 miles ESE 8.1 mph - N/A   Mostly Cloudy
10:45 AM 48.2°F 41.0°F 76% 29.63 in 10.0 miles ESE 8.1 mph - N/A   Mostly Cloudy
10:53 AM 48.9°F 41.0°F 74% 29.64 in 10.0 miles East 9.2 mph - N/A   Scattered Clouds
11:29 AM 51.8°F 42.8°F 71% 29.61 in 10.0 miles ESE 8.1 mph - N/A   Overcast
11:40 AM 51.8°F 42.8°F 71% 29.60 in 10.0 miles SE 9.2 mph - N/A   Overcast
11:53 AM 52.0°F 42.1°F 69% 29.61 in 10.0 miles SE 8.1 mph - N/A   Overcast
12:53 PM 55.0°F 39.9°F 57% 29.61 in 10.0 miles SSE 10.4 mph 19.6 mph N/A   Scattered Clouds
1:53 PM 55.9°F 41.0°F 57% 29.60 in 10.0 miles South 8.1 mph - N/A   Mostly Cloudy
2:53 PM 54.0°F 39.9°F 59% 29.61 in 10.0 miles SSE 6.9 mph - N/A   Mostly Cloudy
3:53 PM 53.1°F 41.0°F 64% 29.65 in 10.0 miles WSW 9.2 mph - 0.00 in   Overcast
4:36 PM 44.6°F 35.6°F 71% 29.66 in 10.0 miles NNW 12.7 mph - N/A   Partly Cloudy
4:53 PM 44.1°F 35.1°F 71% 29.68 in 10.0 miles NW 12.7 mph - N/A   Clear
5:53 PM 39.0°F 32.0°F 76% 29.71 in 10.0 miles WNW 6.9 mph - N/A   Clear
6:53 PM 39.0°F 33.1°F 79% 29.70 in 10.0 miles SW 6.9 mph - N/A   Clear
7:53 PM 36.0°F 30.9°F 82% 29.71 in 10.0 miles ENE 3.5 mph - N/A   Clear
8:53 PM 37.0°F 33.1°F 86% 29.71 in 10.0 miles Calm Calm - N/A   Scattered Clouds
9:53 PM 37.0°F 32.0°F 82% 29.68 in 10.0 miles Calm Calm - N/A   Scattered Clouds
10:53 PM 36.0°F 30.9°F 82% 29.70 in 10.0 miles Calm Calm - N/A   Mostly Cloudy
11:53 PM 37.0°F 32.0°F 82% 29.68 in 10.0 miles ENE 4.6 mph - N/A   Mostly Cloudy
Moon Phase
Nov. 20 Nov. 28 Dec. 06 Dec. 13 Dec. 20
Sunrise:07:13 AM (PST) Moon Rise:12:36 PM (PST)11/20
Sunset:04:21 PM (PST) Moon Set:No Moon Set/

Copyright © 2014 The Weather Underground, Inc.